Marshfield, WI

7:59 PM CST on November 18, 2017 (GMT -0600)
Marshfield Municipal

Weather History for KMFI - February, 2014

Change the Weather History Date:

Thursday, February 13, 2014

  Actual Average Record
Temperature  
Mean Temperature 17 °F -  
Max Temperature 26 °F 27 °F 50 °F (2011)
Min Temperature 8 °F 8 °F -18 °F (1955)
Degree Days  
Heating Degree Days 48    
Moisture  
Dew Point 12 °F    
Average Humidity 82    
Maximum Humidity 88    
Minimum Humidity 74    
Precipitation  
Precipitation 0.02 in - - ()
Sea Level Pressure  
Sea Level Pressure 29.62 in    
Wind  
Wind Speed 11 mph (SSW)    
Max Wind Speed 20 mph    
Max Gust Speed 26 mph    
Averages and records for this station are not official NWS values.
T = Trace of Precipitation, MM = Missing Value Source: NWS Daily Summary

Daily Weather History Graph

Daily Weather History Graph

Search for Another Location

Airport or City:

Trip Planner

Search our weather history database for the weather conditions in past years. The results will help you decide how hot, cold, wet, or windy it might be!

Date:

Astronomy

Feb. 13, 2014 Rise Set
Actual Time 7:03 AM CST 5:26 PM CST
Civil Twilight 6:33 AM CST 5:56 PM CST
Nautical Twilight 5:59 AM CST 6:31 PM CST
Astronomical Twilight 5:25 AM CST 7:04 PM CST
Moon 4:35 PM CST (2/13) 5:57 AM CST (2/13)
Length of Visible Light 11h 22m
Length of Day
10h 22m
Waxing Gibbous, 99% of the Moon is Illuminated
Feb 13
Waxing Gibbous
Feb 14
Full
Feb 22
Last Quarter
Mar 1
New
Mar 8
First Quarter

Hourly Weather History & Observations

Time (CST) Temp. Windchill Dew Point Humidity Pressure Visibility Wind Dir Wind Speed Gust Speed Precip Events Conditions
12:54 AM 9.0 °F -3.2 °F 5.0 °F 84% 29.92 in - SSE 8.1 mph - N/A   Clear
1:54 AM 8.1 °F 1.4 °F 5.0 °F 87% 29.92 in - South 3.5 mph - N/A   Clear
2:35 AM 8.1 °F 1.4 °F 3.9 °F 83% 29.83 in - SE 3.5 mph - N/A   Mostly Cloudy
2:54 AM 8.1 °F 1.4 °F 3.9 °F 83% 29.89 in - SE 3.5 mph - N/A   Overcast
3:54 AM 10.0 °F -1.9 °F 6.1 °F 84% 29.84 in - South 8.1 mph - N/A   Overcast
4:04 AM 10.9 °F -2.6 °F 6.1 °F 81% 29.74 in - SSE 10.4 mph - N/A   Overcast
4:20 AM 10.9 °F -1.8 °F 7.0 °F 84% 29.74 in - SSE 9.2 mph - N/A   Overcast
4:54 AM 10.9 °F -2.6 °F 8.1 °F 88% 29.79 in - SSE 10.4 mph - N/A   Overcast
5:23 AM 12.0 °F -2.7 °F 8.1 °F 84% 29.70 in - SSE 12.7 mph - N/A   Overcast
5:54 AM 12.0 °F -2.0 °F 9.0 °F 88% 29.77 in - South 11.5 mph - N/A   Overcast
6:28 AM 12.9 °F -0.9 °F 9.0 °F 84% 29.66 in - SSE 11.5 mph - N/A   Overcast
6:47 AM 14.0 °F 0.5 °F 10.0 °F 84% 29.63 in - SE 11.5 mph - 0.00 in Snow Snow
6:54 AM 14.0 °F -0.2 °F 10.0 °F 84% 29.70 in - SE 12.7 mph - 0.00 in Snow Snow
7:20 AM 15.1 °F -1.1 °F 10.9 °F 84% 29.61 in - SSE 17.3 mph - 0.01 in Snow Light Snow
7:54 AM 15.1 °F -0.1 °F 10.9 °F 84% 29.68 in - SSE 15.0 mph - 0.01 in Snow Light Snow
8:17 AM 16.0 °F 0.6 °F 12.0 °F 84% 29.57 in - SSE 16.1 mph 24.2 mph 0.00 in Snow Snow
8:27 AM 16.0 °F 0.6 °F 10.9 °F 81% 29.57 in - SSE 16.1 mph 24.2 mph 0.00 in Snow Light Snow
8:37 AM 16.0 °F -0.4 °F 12.0 °F 84% 29.56 in - SSE 18.4 mph - 0.00 in Snow Heavy Snow
8:54 AM 16.0 °F -0.9 °F 12.9 °F 88% 29.63 in - South 19.6 mph - 0.01 in Snow Light Snow
9:04 AM 16.0 °F 1.1 °F 12.0 °F 84% 29.55 in - SSE 15.0 mph - 0.00 in Snow Light Snow
9:44 AM 17.1 °F 3.6 °F 12.9 °F 84% 29.54 in - South 12.7 mph - 0.00 in Snow Light Snow
9:54 AM 17.1 °F 2.5 °F 12.9 °F 84% 29.61 in - South 15.0 mph - 0.00 in   Overcast
10:54 AM 19.0 °F 4.5 °F 15.1 °F 85% 29.57 in - South 16.1 mph - N/A   Overcast
11:54 AM 21.0 °F 8.1 °F 16.0 °F 81% 29.52 in - South 13.8 mph - N/A   Overcast
12:54 PM 23.0 °F 11.1 °F 18.0 °F 81% 29.48 in - SSW 12.7 mph - N/A   Overcast
1:54 PM 24.1 °F 13.7 °F 19.0 °F 81% 29.46 in - SSW 10.4 mph - N/A   Overcast
2:54 PM 25.0 °F 17.1 °F 19.9 °F 81% 29.45 in - SSW 6.9 mph - N/A   Overcast
3:54 PM 26.1 °F 19.4 °F 19.9 °F 78% 29.47 in - WSW 5.8 mph - N/A   Overcast
4:29 PM 24.1 °F 10.6 °F 19.0 °F 81% 29.42 in - WNW 17.3 mph 25.3 mph 0.00 in Snow Light Snow
4:54 PM 21.9 °F 8.2 °F 18.0 °F 85% 29.51 in - WNW 16.1 mph 26.5 mph 0.00 in Snow Light Snow
5:54 PM 21.0 °F 8.1 °F 16.0 °F 81% 29.54 in - West 13.8 mph - 0.00 in Snow Light Snow
6:52 PM 19.4 °F 6.0 °F 15.8 °F 86% 29.48 in - WNW 13.8 mph 23.0 mph 0.00 in Snow Light Snow
6:54 PM 19.9 °F 5.7 °F 15.1 °F 81% 29.55 in - WNW 16.1 mph 23.0 mph 0.00 in Snow Light Snow
7:54 PM 21.0 °F 7.1 °F 15.1 °F 78% 29.57 in - WNW 16.1 mph - 0.00 in   Overcast
8:54 PM 19.9 °F 4.8 °F 12.9 °F 74% 29.59 in - NW 18.4 mph - N/A   Overcast
9:54 PM 17.1 °F 4.3 °F 10.0 °F 74% 29.60 in - NW 11.5 mph - N/A   Partly Cloudy
10:29 PM 18.0 °F 6.1 °F 10.9 °F 74% 29.53 in - WNW 10.4 mph - N/A   Mostly Cloudy
10:52 PM 17.6 °F 3.7 °F 12.2 °F 79% 29.54 in - WNW 13.8 mph - 0.00 in Snow Light Snow
10:54 PM 18.0 °F 4.2 °F 12.9 °F 81% 29.60 in - WNW 13.8 mph - 0.00 in Snow Light Snow
11:05 PM 18.0 °F 4.2 °F 12.9 °F 81% 29.54 in - WNW 13.8 mph 21.9 mph 0.00 in Snow Light Snow
11:54 PM 17.1 °F 2.0 °F 10.9 °F 77% 29.63 in - WNW 16.1 mph 24.2 mph 0.00 in Snow Light Snow